Location: Sternwarte ZA, Rosenfeld-Brittheim
(48.2889°N, 8.6789°E)
Time: 20:52:16
(UTC+01:00)

ISS - Pass Details

Date: 15 November 2018
Orbit: 403 x 411 km, 51.6° (Epoch: 17 February)

Event Time Altitude Azimuth Distance (km) Brightness Sun altitude
Exits shadow 04:54:23 10° 151° (SSE) 1,461 -0.7 -26.1°
Drops below altitude 10° 04:54:25 10° 150° (SSE) 1,470 -0.7 -26.1°
Sets 04:56:37 0° 141° (SE) 2,331 0.6 -25.8°
